Regional Weather Roundup
Issued by NWS

Home | Current Version | Previous Version | Text Only | Print | Product List | Glossary Off
Versions: 1 2 3 4 5 6 7 8 9 10 11 12 13 14 15 16 17 18 19 20 21 22 23 24 25 26 27 28 29 30 31 32 33 34 35 36 37 38 39 40 41 42 43 44 45 46 47 48 49 50

000
ASUS43 KOAX 270302
RWRNE

WEATHER ROUNDUP FOR NEBRASKA
NATIONAL WEATHER SERVICE OMAHA NE
900 PM CST SUN FEB 26 2017

NOTES: SATELLITE DATA IS BEING USED TO AUGMENT CLOUD COVER ABOVE
       12000 FEET.
       "FAIR" INDICATES FEW OR NO CLOUDS BELOW 12,000 FEET WITH NO
       SIGNIFICANT WEATHER AND/OR OBSTRUCTIONS TO VISIBILITY.

  * THESE STATIONS DO NOT REPORT WEATHER SUCH AS RAIN...SNOW OR FOG.

NEZ001>004-019>022-054>056-270400-
NEBRASKA PANHANDLE

CITY           SKY/WX    TMP DP  RH WIND       PRES   REMARKS
SCOTTSBLUFF    FAIR      15   6  67 E3        29.82S
ALLIANCE       FAIR       7   2  80 W6        29.82S WCI  -3
CHADRON        FAIR      15   6  67 CALM      29.82F
KIMBALL        FAIR      17  12  81 SE6       29.80S WCI   9
SIDNEY         FAIR      18  11  74 SE5       29.82F WCI  11
$$

NEZ057>060-069>072-079>082-270400-
SOUTHWEST NEBRASKA

CITY           SKY/WX    TMP DP  RH WIND       PRES   REMARKS
NORTH PLATTE   FAIR      20  13  74 CALM      29.90S
IMPERIAL       FAIR      25  14  63 E5        29.88S WCI  19
LEXINGTON      FAIR      28  15  58 CALM      29.92S
MCCOOK         FAIR      27  10  49 E7        29.91F WCI  19
OGALLALA       FAIR      20  14  78 CALM      29.87F
$$

NEZ005>010-023>029-035>040-094-270400-
NORTH CENTRAL NEBRASKA

CITY           SKY/WX    TMP DP  RH WIND       PRES   REMARKS
VALENTINE      FAIR      15   8  73 SW8       29.86S WCI   4
AINSWORTH      FAIR      20  13  76 SW10      29.87S WCI   8
BROKEN BOW     FAIR      18  13  80 CALM      29.90S
O`NEILL        FAIR      22  18  81 W5        29.91S WCI  16
ORD            FAIR      22  16  78 SW7       29.91S WCI  13
THEDFORD       FAIR      17  11  79 CALM      29.89S
$$

NEZ041-046>049-061>064-073>077-083>087-270400-
SOUTH CENTRAL NEBRASKA

CITY           SKY/WX    TMP DP  RH WIND       PRES   REMARKS
GRAND ISLAND   FAIR      30  18  60 S5        29.96R WCI  25
AURORA         FAIR      32  18  55 CALM      29.96S
HASTINGS       FAIR      31  15  52 SW3       29.97R
HEBRON         FAIR      29  17  60 CALM      29.99R
HOLDREGE       FAIR      29  12  48 CALM      29.94S
KEARNEY *      FAIR      30  16  55 CALM      29.95S
YORK           FAIR      32  25  74 S6        29.97R WCI  26
$$

NEZ011>018-030>034-042>045-270400-
NORTHEAST NEBRASKA

CITY           SKY/WX    TMP DP  RH WIND       PRES   REMARKS
NORFOLK        FAIR      24  18  77 S6        29.94R WCI  17
ALBION         FAIR      28  19  67 CALM      29.94R
BLAIR          FAIR      34  25  70 CALM      29.97S
FREMONT        FAIR      30  24  78 CALM      29.99R
TEKAMAH        FAIR      25  23  92 SW5       29.99R WCI  19
WAYNE          FAIR      22  19  85 S6        29.95R WCI  15
$$

NEZ050>053-065>068-078-088>093-270400-
SOUTHEAST NEBRASKA

CITY           SKY/WX    TMP DP  RH WIND       PRES   REMARKS
LINCOLN        FAIR      29  22  75 CALM      30.00R
OMAHA EPPLEY   FAIR      29  23  78 NW7       29.99R WCI  22
BEATRICE       FAIR      32  22  67 CALM      29.99S
FALLS CITY     FAIR      34  22  61 NW3       30.00R
NEBRASKA CITY  FAIR      36  16  44 CALM      30.00R
PLATTSMOUTH    FAIR      34  19  55 CALM      29.99R
$$

NEZ044-045-051>053-067-270400-
OMAHA AREA

CITY           SKY/WX    TMP DP  RH WIND       PRES   REMARKS
OMAHA EPPLEY   FAIR      29  23  78 NW7       29.99R WCI  22
BLAIR          FAIR      34  25  70 CALM      29.97S
FREMONT        FAIR      30  24  78 CALM      29.99R
MILLARD        FAIR      32  25  74 CALM      29.99R
OFFUTT AFB     FAIR      28  21  76 SE5       29.99R WCI  22
PLATTSMOUTH    FAIR      34  19  55 CALM      29.99R
WAHOO          FAIR      32  24  71 CALM      29.98R
$$




USA.gov is the U.S. government's official web portal to all federal, state and local government web resources and services.